Regional Weather Roundup
Issued by NWS

Home | Current Version | Previous Version | Text Only | Print | Product List | Glossary Off
Versions: 1 2 3 4 5 6 7 8 9 10 11 12 13 14 15 16 17 18 19 20 21 22 23 24 25 26 27 28 29 30 31 32 33 34 35 36 37 38 39 40 41 42 43 44 45 46 47 48 49 50

000
ASUS43 KLMK 060502
RWRKY
KENTUCKY REGIONAL WEATHER ROUNDUP
NATIONAL WEATHER SERVICE LOUISVILLE KY
1200 AM EST SAT FEB 06 2016

NOTE "FAIR" INDICATES FEW OR NO CLOUDS BELOW 12,000 FEET
WITH NO SIGNIFICANT WEATHER AND/OR OBSTRUCTIONS TO VISIBILITY.

KYZ001>023-026-027-061>063-070>075-060600-
WESTERN AND SOUTH CENTRAL KENTUCKY

CITY           SKY/WX    TMP DP  RH WIND       PRES   REMARKS
PADUCAH        CLEAR     29  22  75 CALM      30.35S
HENDERSON      PTCLDY    34  25  69 NE5       30.37S WCI  30
OWENSBORO      CLEAR     33  25  73 CALM      30.38R
HOPKINSVILLE   PTCLDY    36  23  58 SW1       30.36S
BOWLING GREEN  CLEAR     35  20  54 CALM      30.38R
GLASGOW        NOT AVBL
$$

KYZ024-025-028>034-038-045-046-053-060600-
NORTH CENTRAL KENTUCKY

CITY           SKY/WX    TMP DP  RH WIND       PRES   REMARKS
LOUISVILLE/SDF CLOUDY    35  20  54 CALM      30.35S
LOUISVILLE/LOU CLOUDY    32  21  64 CALM      30.36S
FORT KNOX      CLOUDY    30  20  67 W2        30.33S
$$

KYZ035>037-039>044-047>052-055>060-089>105-060600-
NORTHEAST KENTUCKY

CITY           SKY/WX    TMP DP  RH WIND       PRES   REMARKS
LEXINGTON      CLOUDY    33  18  53 S8        30.34S WCI  26
COVINGTON      PTCLDY    29  24  82 NW5       30.33R WCI  24
FRANKFORT      CLOUDY    31  17  56 S5        30.33S WCI  26
$$

KYZ054-064>069-076>088-106>120-060600-
SOUTHEAST KENTUCKY

CITY           SKY/WX    TMP DP  RH WIND       PRES   REMARKS
JACKSON        CLOUDY    32  13  45 S3        30.35F
LONDON         PTCLDY    28  20  71 S3        30.37S
SOMERSET       NOT AVBL
MIDDLESBORO    NOT AVBL
MONTICELLO     CLOUDY    25  22  88 N3        30.38F
$$




USA.gov is the U.S. government's official web portal to all federal, state and local government web resources and services.